This is the latest recevied weather packets stored in our database for station/object AB8Y-13. If no packets are shown the sender has not sent any weather packets the latest 10 day(s).
| Time | Temp. | Humidity | Pressure | Rain* | Wind** | Luminosity | Snow |
|---|---|---|---|---|---|---|---|
| 1777778822 | 4.44° C | 60% | 1015.4 hPa | 0 mm | - | 0 W/m² | - |
| 1777778520 | 3.89° C | 63% | 1015.5 hPa | 0 mm | - | 0 W/m² | - |
| 1777778217 | 4.44° C | 62% | 1015.6 hPa | 0 mm | - | 0 W/m² | - |
| 1777777915 | 4.44° C | 62% | 1015.5 hPa | 0 mm | - | 0 W/m² | - |
| 1777777611 | 4.44° C | 59% | 1015.3 hPa | 0 mm | - | 0 W/m² | - |
| 1777777307 | 3.89° C | 61% | 1015.5 hPa | 0 mm | - | 0 W/m² | - |
| 1777777004 | 3.89° C | 61% | 1015.6 hPa | 0 mm | - | 0 W/m² | - |
| 1777776703 | 4.44° C | 64% | 1015.6 hPa | 0 mm | - | 0 W/m² | - |
| 1777776398 | 4.44° C | 63% | 1015.5 hPa | 0 mm | - | 0 W/m² | - |
| 1777776096 | 5° C | 61% | 1015.5 hPa | 0 mm | - | 0 W/m² | - |
| 1777775793 | 5° C | 59% | 1015.6 hPa | 0 mm | - | 0 W/m² | - |
| 1777775490 | 4.44° C | 66% | 1015.7 hPa | 0 mm | - | 0 W/m² | - |
| 1777775186 | 4.44° C | 65% | 1015.7 hPa | 0 mm | - | 0 W/m² | - |
| 1777774880 | 4.44° C | 64% | 1015.8 hPa | 0 mm | - | 0 W/m² | - |
| 1777774578 | 4.44° C | 67% | 1015.8 hPa | 0 mm | - | 0 W/m² | - |
| 1777774274 | 4.44° C | 64% | 1015.6 hPa | 0 mm | - | 0 W/m² | - |
| 1777773971 | 5° C | 66% | 1015.7 hPa | 0 mm | - | 0 W/m² | - |
| 1777773669 | 5° C | 61% | 1015.6 hPa | 0 mm | - | 0 W/m² | - |
| 1777773365 | 5° C | 59% | 1015.6 hPa | 0 mm | - | 0 W/m² | - |
| 1777773062 | 5° C | 64% | 1015.7 hPa | 0 mm | - | 0 W/m² | - |
| 1777772758 | 5° C | 65% | 1015.6 hPa | 0 mm | - | 0 W/m² | - |
| 1777772456 | 5° C | 63% | 1015.6 hPa | 0 mm | - | 0 W/m² | - |
| 1777772153 | 5° C | 65% | 1015.5 hPa | 0 mm | - | 0 W/m² | - |
| 1777771850 | 5° C | 62% | 1015.6 hPa | 0 mm | - | 0 W/m² | - |
| 1777771548 | 5° C | 64% | 1015.6 hPa | 0 mm | - | 0 W/m² | - |
* Rain latest hour (hover to see other rain measurements)
** Current wind speed in m/s (hover to see current wind gust speed)